Home   Weather   Escuintla   Past weeks

Flag for Guatemala Past Weather in Escuintla, Guatemala — Yesterday and Last 2 Weeks

Now
72 °F

Scattered clouds.


Feels Like: 74 °F
Forecast: 70 / 94 °F
Wind: 14 mph from South

Location: Guatemala Aeropuertola Aurora

Current Time: Apr 27, 2017 at 6:57:43 pm

Latest Report: Apr 27, 2017 at 6:00 pm


Visibility: 4 mi

Pressure: 30.12 "Hg

Humidity: 73%

Dew Point: 63 °F

Location of EscuintlaLocation

Past Weather in Escuintla — Graph

°F

Escuintla Temperature Yesterday

Maximum temperature yesterday: 77 °F (at 12:00 pm)
Minimum temperature yesterday: 64 °F (at 1:00 am)
Average temperature yesterday: 70 °F

High & Low Weather Summary for the Past Weeks

 TemperatureHumidityPressure
High82 °F (Apr 16, 1:00 pm)94% (Apr 14, 6:00 am)30.33 "Hg (Apr 14, 6:00 am)
Low57 °F (Apr 13, 3:00 am)36% (Apr 13, 12:00 pm)29.92 "Hg (Apr 17, 1:00 pm)
Average69 °F71%30.23 "Hg
* Reported Apr 12 5:00 pm — Apr 27 5:00 pm, Escuintla, Weather by CustomWeather, © 2017

Note: Actual official high and low records may vary slightly from our data, if they occured in-between our weather recording intervals... More about our weather records

Advertising

Escuintla Weather History for the Previous 24 Hours

Scroll right to see more
 ConditionsComfort  
Time TempWeatherWind HumidityBarometerVisibility
5:00 pm
Thu, Apr 27
75 °FScattered clouds.18 mph65%30.12 "Hg4 mi
4:00 pm77 °FScattered clouds.18 mph61%30.09 "Hg4 mi
3:00 pm81 °FPartly sunny.16 mph54%30.09 "Hg4 mi
2:00 pm82 °FPartly sunny.14 mph51%30.12 "Hg5 mi
1:00 pm82 °FScattered clouds.14 mph48%30.15 "HgN/A
12:00 pm82 °FSunny.12 mph45%30.18 "Hg10 mi
11:00 am79 °FPassing clouds.14 mph51%30.21 "Hg5 mi
10:00 am75 °FPassing clouds.9 mph61%30.21 "Hg4 mi
9:00 am72 °FSunny.12 mph69%30.21 "Hg4 mi
8:00 am68 °FSunny.9 mph73%30.21 "Hg4 mi
7:00 am66 °FSunny.7 mph83%30.21 "Hg4 mi
6:00 am64 °FScattered clouds.9 mph88%30.18 "Hg4 mi
5:00 am64 °FPassing clouds.7 mph94%30.18 "Hg4 mi
4:00 am64 °FPassing clouds.7 mph94%30.18 "Hg4 mi
3:00 am66 °FPassing clouds.7 mph88%30.18 "Hg4 mi
2:00 am66 °FPassing clouds.7 mph83%30.18 "Hg4 mi
1:00 am66 °FPassing clouds.5 mph88%30.21 "Hg4 mi
12:00 am66 °FPassing clouds.7 mph88%30.21 "Hg4 mi
11:00 pm
Wed, Apr 26
68 °FPassing clouds.7 mph83%30.24 "Hg4 mi
10:00 pm68 °FPassing clouds.9 mph83%30.24 "Hg4 mi
9:00 pm68 °FPassing clouds.9 mph83%30.21 "Hg4 mi
8:00 pm68 °FPassing clouds.9 mph88%30.18 "Hg4 mi
7:00 pm70 °FPassing clouds.9 mph83%30.18 "Hg4 mi
6:00 pm72 °FPassing clouds.12 mph73%30.12 "Hg4 mi
Weather by CustomWeather, © 2017

See weather overviewHow to use our weather pages